CZ-6A DEB, 60626

Orbit data source: Space-Track

CZ-6A DEB, 60626 is space debris in LEO originally from a launch on Tue, 06 Aug 2024 UTC launched from the Taiyaun Space Center, China (TSC). Debris objects in space refer to the collection of defunct objects orbiting the Earth. Examples of debris include non-operational satellites, rocket bodies, and fragments generated from explosions, collisions, or faulty payload assembly.

Loading next visibility...
Identifier
60626, 2024-140AB
Orbit
LEO
Country
Flag of CNCN / PRC
Related business
Manufacturer
SAST
Mission
Spacecraft
Bus & Motor
Unknown
Mass
Unknown
Launch date (UTC)
2024-08-06 (2 years ago)
Launch vehicle
Unknown
Launch site
Taiyaun Space Center, China (TSC)
Object type
Payload
Rocket body
Debris
Shape & HBR
Unknown shape, 0.2 m
Radar Cross Section
Medium (>0.1 m² and <1 m²)

Expand to show TLE details & history
Last TLE update: 10 hours ago

TLE from 10 hours ago
0 CZ-6A DEB
1 60626U 24140AB  26171.44973973  .00003182  00000-0  28386-3 0  9998
2 60626  89.0196 268.2888 0211277 160.2659 200.6900 14.80042661100613
Epoch: 2026-06-20T10:47Z
TLE epoch observation values (Epoch: 2026-06-20T10:47:37.512Z)
Latitude
-0.00006°
Longitude
-162.2817°
Altitude
771.242 km
Speed
7.394 km/s
True Right ascension
17h 53m 09s
True Declination
0° 00' 00"
Sunlit
Object was in full shadow at epoch
Visualization orbit readout
Latitude
Unknown
Longitude
Unknown
Altitude
Unknown
Speed
Unknown
Apparent Right ascension
Unknown
Apparent Declination
Unknown
Sunlit
N/A
Visualization observer readout
Local Sidereal Time
07:22:40
Azimuth
Unknown
Elevation
Unknown
Doppler factor
Unknown
Orbital elements
Apogee altitude
774.035 km
Perigee altitude
478.071 km
Semi-major axis
7,004.19 km
Eccentricity
0.02113
Inclination
89.0196°
RAAN
268.2888°
Arg. of periapsis
160.2659°
True anomaly
199.85529°
Mean anomaly
200.69°
Eccentric anomaly
200.27061°
Mean motion
3.7026 °/min
Orbital period
97.23 mins
BSTAR
0.00028386
Loading maneuver chart data...
Computing Atmospheric mass density...
Loading historical data...
Loading historical data...
Loading historical data...
Loading historical data...
Loading historical data...
Loading historical data...
Loading historical data...

Documentation

Showing up to 5 results
|